FLOCK 2'-1

Last updated on Tue Aug 02 2016 17:39:13 GMT+0000 (Coordinated Universal Time)

1 41617U 16040U 16215.48430162 .00003124 00000-0 14802-3 0 9991 2 41617 97.5061 274.4341 0013190 115.0278 245.2328 15.19993605 6226
UTC large
Height (km)
Speed (km/s)
/
Latitude / Longitude
Inclination (degrees)
Orbital Period (minutes)
Azimuth
Elevation
Range (km)
Doppler Factor

Next 0 passes for location: London (51.5072 / 0.1276)

Sorry there are no passes over London.